QPF
0.02 0.02 0.01 0.01 0.02 0.02 0.03 0.02 0.02 0.03 0.05 0.03 0.02 0.01 0.02 0.02 0.02 0.01 0.02 0.02 0.02 0.02 0.02 0.02 0.04 0.05 0.05 0.05 0.05 0.05 0.07 0.06 0.05 0.05 0.05 0.04 0.04 0.04 0.04 0.04 0.04 0.04 0.04 0.03
0.01 0.01 0.01 0.01 0.01 0.01 0.02 0.02 0.02 0.02 0.04 0.03 0.01 0.02 0.02 0.02 0.01 0.02 0.02 0.03 0.03 0.04 0.03 0.03 0.04 0.05 0.05 0.08 0.09 0.08 0.07 0.09 0.08 0.06 0.06 0.06 0.05 0.06 0.07 0.07 0.07 0.07 0.07 0.05
0.02 0.00 0.01 0.02 0.02 0.03 0.04 0.03 0.03 0.03 0.03 0.01 0.01 0.02 0.03 0.02 0.02 0.03 0.03 0.03 0.03 0.04 0.03 0.03 0.04 0.06 0.07 0.07 0.09 0.10 0.10 0.09 0.08 0.08 0.09 0.09 0.10 0.09 0.10 0.11 0.10 0.08 0.06 0.05
0.03 0.03 0.04 0.04 0.01 0.03 0.04 0.04 0.03 0.02 0.02 0.02 0.04 0.05 0.04 0.03 0.03 0.05 0.06 0.04 0.04 0.04 0.04 0.05 0.05 0.06 0.08 0.09 0.08 0.08 0.09 0.10 0.09 0.08 0.07 0.06 0.07 0.09 0.07 0.06 0.06 0.06 0.06 0.05
0.05 0.06 0.05 0.05 0.04 0.03 0.04 0.06 0.03 0.02 0.02 0.03 0.04 0.06 0.05 0.04 0.07 0.14 0.12 0.05 0.04 0.05 0.05 0.06 0.06 0.07 0.07 0.08 0.10 0.10 0.10 0.10 0.10 0.12 0.10 0.08 0.07 0.06 0.06 0.06 0.06 0.06 0.07 0.05
0.04 0.05 0.06 0.06 0.05 0.04 0.04 0.09 0.04 0.03 0.03 0.04 0.05 0.06 0.07 0.06 0.06 0.07 0.09 0.07 0.07 0.06 0.06 0.07 0.07 0.07 0.07 0.07 0.09 0.10 0.08 0.06 0.05 0.07 0.08 0.06 0.05 0.05 0.05 0.05 0.05 0.04 0.05 0.04
0.04 0.05 0.06 0.03 0.03 0.04 0.08 0.10 0.05 0.03 0.03 0.04 0.05 0.06 0.06 0.06 0.05 0.05 0.06 0.06 0.05 0.05 0.05 0.06 0.06 0.06 0.07 0.07 0.07 0.09 0.09 0.05 0.05 0.05 0.06 0.04 0.04 0.04 0.05 0.04 0.04 0.04 0.04 0.04
0.03 0.06 0.06 0.03 0.05 0.07 0.09 0.07 0.04 0.03 0.02 0.02 0.04 0.04 0.05 0.07 0.07 0.06 0.04 0.05 0.05 0.05 0.04 0.05 0.06 0.06 0.06 0.08 0.07 0.09 0.09 0.05 0.05 0.05 0.05 0.04 0.04 0.04 0.04 0.04 0.03 0.04 0.03 0.03
0.02 0.03 0.03 0.02 0.06 0.07 0.04 0.03 0.03 0.02 0.01 0.02 0.03 0.03 0.03 0.04 0.04 0.04 0.04 0.04 0.04 0.03 0.04 0.04 0.05 0.05 0.05 0.06 0.06 0.07 0.07 0.06 0.06 0.06 0.06 0.05 0.04 0.03 0.04 0.03 0.03 0.02 0.02 0.02
0.02 0.02 0.01 0.02 0.04 0.03 0.01 0.01 0.01 0.02 0.02 0.02 0.02 0.02 0.02 0.03 0.02 0.02 0.02 0.02 0.03 0.03 0.03 0.03 0.04 0.04 0.04 0.04 0.04 0.05 0.06 0.07 0.06 0.05 0.05 0.04 0.03 0.02 0.02 0.01 0.01 0.01 0.01 0.01
0.02 0.02 0.02 0.02 0.01 0.01 0.00 0.00 0.01 0.01 0.02 0.02 0.01 0.02 0.02 0.01 0.01 0.01 0.01 0.01 0.02 0.03 0.03 0.03 0.04 0.04 0.03 0.03 0.04 0.05 0.05 0.05 0.03 0.02 0.02 0.02 0.01 0.01 0.01 0.01 0.01 0.01 0.01 0.01
0.02 0.03 0.04 0.03 0.01 0.00 0.00 0.00 0.00 0.01 0.01 0.02 0.01 0.01 0.01 0.01 0.01 0.01 0.01 0.02 0.02 0.02 0.02 0.03 0.04 0.04 0.04 0.03 0.03 0.04 0.04 0.03 0.02 0.01 0.01 0.01 0.01 0.01 0.02 0.02 0.02 0.02 0.02 0.02
0.01 0.02 0.02 0.01 0.01 0.00 0.00 0.00 0.00 0.00 0.01 0.01 0.01 0.01 0.01 0.01 0.01 0.01 0.02 0.02 0.02 0.02 0.02 0.03 0.03 0.04 0.05 0.04 0.04 0.05 0.04 0.03 0.02 0.01 0.01 0.01 0.02 0.02 0.02 0.03 0.03 0.02 0.02 0.02
0.00 0.01 0.01 0.00 0.00 0.00 0.00 0.00 0.00 0.00 0.00 0.01 0.01 0.01 0.01 0.02 0.02 0.02 0.02 0.02 0.02 0.02 0.03 0.04 0.03 0.04 0.05 0.04 0.04 0.03 0.03 0.02 0.01 0.00 0.01 0.01 0.01 0.02 0.02 0.03 0.03 0.03 0.03 0.03
0.00 0.01 0.01 0.01 0.00 0.00 0.00 0.00 0.00 0.01 0.01 0.01 0.00 0.00 0.01 0.02 0.01 0.01 0.01 0.01 0.01 0.02 0.03 0.03 0.04 0.05 0.05 0.03 0.02 0.02 0.02 0.01 0.00 0.00 0.00 0.01 0.01 0.02 0.02 0.02 0.02 0.02 0.01 0.01
0.00 0.00 0.01 0.01 0.01 0.00 0.00 0.00 0.00 0.01 0.02 0.01 0.01 0.01 0.01 0.01 0.01 0.01 0.01 0.01 0.02 0.02 0.02 0.02 0.03 0.03 0.03 0.04 0.03 0.03 0.01 0.00 0.00 0.00 0.01 0.01 0.01 0.01 0.01 0.01 0.01 0.01 0.01 0.00
0.01 0.01 0.01 0.01 0.01 0.01 0.01 0.00 0.00 0.01 0.01 0.01 0.01 0.01 0.01 0.01 0.01 0.01 0.02 0.02 0.02 0.02 0.01 0.02 0.03 0.02 0.01 0.03 0.03 0.02 0.00 0.00 0.00 0.01 0.01 0.01 0.01 0.00 0.00 0.01 0.01 0.01 0.01 0.01
0.01 0.01 0.01 0.02 0.01 0.01 0.02 0.01 0.00 0.01 0.01 0.01 0.01 0.01 0.01 0.01 0.01 0.02 0.02 0.02 0.01 0.01 0.01 0.02 0.02 0.02 0.01 0.01 0.01 0.01 0.01 0.00 0.00 0.01 0.01 0.01 0.00 0.00 0.00 0.00 0.01 0.01 0.01 0.01
0.00 0.01 0.01 0.01 0.01 0.01 0.02 0.01 0.01 0.01 0.01 0.01 0.00 0.01 0.01 0.01 0.01 0.02 0.02 0.02 0.02 0.01 0.01 0.01 0.01 0.01 0.00 0.00 0.01 0.01 0.01 0.01 0.01 0.00 0.00 0.00 0.00 0.00 0.00 0.00 0.00 0.01 0.01 0.01
0.00 0.01 0.01 0.01 0.02 0.02 0.02 0.01 0.00 0.00 0.00 0.00 0.00 0.01 0.01 0.01 0.02 0.02 0.02 0.02 0.02 0.01 0.01 0.01 0.01 0.01 0.00 0.00 0.00 0.01 0.01 0.00 0.00 0.00 0.00 0.00 0.00 0.00 0.00 0.00 0.00 0.00 0.01 0.01
0.00 0.00 0.01 0.01 0.01 0.01 0.02 0.01 0.00 0.00 0.01 0.01 0.00 0.01 0.01 0.01 0.02 0.03 0.02 0.01 0.01 0.01 0.01 0.01 0.01 0.01 0.00 0.00 0.00 0.00 0.00 0.00 0.01 0.00 0.00 0.00 0.00 0.00 0.00 0.00 0.00 0.00 0.01 0.00
0.00 0.00 0.00 0.01 0.01 0.02 0.02 0.01 0.00 0.01 0.02 0.01 0.00 0.01 0.01 0.02 0.03 0.03 0.02 0.01 0.01 0.01 0.01 0.01 0.01 0.01 0.01 0.01 0.00 0.00 0.00 0.00 0.00 0.00 0.00 0.00 0.00 0.00 0.00 0.00 0.00 0.00 0.00 0.00
0.01 0.01 0.02 0.02 0.02 0.02 0.01 0.01 0.01 0.02 0.02 0.01 0.01 0.01 0.02 0.03 0.03 0.02 0.01 0.01 0.01 0.01 0.01 0.01 0.01 0.01 0.01 0.00 0.00 0.00 0.00 0.00 0.00 0.00 0.00 0.00 0.00 0.00 0.00 0.00 0.00 0.00 0.00 0.00
0.01 0.02 0.04 0.04 0.03 0.03 0.02 0.02 0.01 0.01 0.01 0.01 0.01 0.01 0.02 0.02 0.02 0.01 0.00 0.00 0.01 0.01 0.01 0.01 0.01 0.01 0.00 0.00 0.00 0.00 0.00 0.00 0.00 0.00 0.00 0.00 0.00 0.00 0.00 0.00 0.00 0.00 0.00 0.00
0.01 0.03 0.04 0.05 0.06 0.05 0.04 0.02 0.01 0.01 0.01 0.01 0.02 0.01 0.01 0.01 0.01 0.00 0.00 0.00 0.01 0.01 0.01 0.01 0.01 0.01 0.00 0.00 0.00 0.00 0.00 0.00 0.00 0.00 0.00 0.00 0.00 0.00 0.00 0.00 0.00 0.00 0.00 0.00
0.03 0.04 0.05 0.07 0.08 0.05 0.03 0.02 0.01 0.02 0.02 0.03 0.02 0.01 0.01 0.01 0.01 0.01 0.00 0.01 0.01 0.01 0.01 0.01 0.00 0.00 0.00 0.00 0.00 0.00 0.00 0.00 0.00 0.00 0.00 0.00 0.00 0.00 0.00 0.00 0.00 0.00 0.00 0.00
0.03 0.04 0.05 0.06 0.05 0.04 0.03 0.02 0.02 0.02 0.03 0.03 0.02 0.01 0.01 0.01 0.01 0.01 0.01 0.01 0.01 0.01 0.01 0.01 0.00 0.00 0.00 0.00 0.00 0.00 0.00 0.00 0.00 0.00 0.00 0.00 0.00 0.00 0.00 0.00 0.00 0.00 0.00 0.00
MSLP
1013.42 1013.06 1012.81 1012.65 1012.57 1012.50 1012.38 1012.18 1011.85 1011.39 1010.84 1010.25 1009.71 1009.29 1009.06 1009.07 1009.31 1009.76 1010.35 1011.02 1011.67 1012.23 1012.65 1012.91 1013.01 1012.99 1012.89 1012.76 1012.65 1012.58 1012.56 1012.57 1012.59 1012.60 1012.55 1012.43 1012.23 1011.97 1011.67 1011.34 1011.01 1010.70 1010.41 1010.15
1013.98 1013.68 1013.45 1013.26 1013.10 1012.92 1012.67 1012.32 1011.85 1011.29 1010.66 1010.04 1009.49 1009.10 1008.91 1008.97 1009.26 1009.75 1010.38 1011.08 1011.74 1012.32 1012.75 1013.02 1013.13 1013.13 1013.04 1012.93 1012.82 1012.75 1012.72 1012.72 1012.73 1012.72 1012.67 1012.55 1012.36 1012.11 1011.81 1011.48 1011.15 1010.83 1010.53 1010.25
1014.58 1014.40 1014.24 1014.09 1013.90 1013.65 1013.30 1012.83 1012.25 1011.57 1010.86 1010.18 1009.60 1009.20 1009.02 1009.08 1009.39 1009.89 1010.52 1011.21 1011.86 1012.43 1012.85 1013.12 1013.25 1013.26 1013.19 1013.09 1012.99 1012.92 1012.89 1012.88 1012.87 1012.84 1012.77 1012.63 1012.42 1012.16 1011.84 1011.50 1011.15 1010.81 1010.48 1010.17
1015.30 1015.27 1015.22 1015.14 1014.97 1014.69 1014.27 1013.70 1013.01 1012.22 1011.41 1010.65 1010.01 1009.56 1009.35 1009.38 1009.66 1010.13 1010.72 1011.37 1011.99 1012.53 1012.93 1013.19 1013.31 1013.33 1013.28 1013.19 1013.11 1013.06 1013.02 1013.00 1012.98 1012.92 1012.82 1012.65 1012.41 1012.10 1011.76 1011.38 1011.00 1010.63 1010.27 1009.93
1016.16 1016.27 1016.35 1016.35 1016.21 1015.92 1015.45 1014.81 1014.01 1013.13 1012.21 1011.35 1010.62 1010.10 1009.82 1009.79 1010.01 1010.41 1010.94 1011.53 1012.09 1012.58 1012.95 1013.19 1013.30 1013.33 1013.29 1013.22 1013.16 1013.11 1013.09 1013.06 1013.02 1012.94 1012.81 1012.60 1012.32 1011.97 1011.58 1011.17 1010.75 1010.35 1009.97 1009.61
1017.14 1017.36 1017.53 1017.60 1017.50 1017.20 1016.69 1015.97 1015.09 1014.10 1013.08 1012.12 1011.30 1010.69 1010.32 1010.22 1010.35 1010.68 1011.13 1011.65 1012.15 1012.58 1012.91 1013.12 1013.23 1013.25 1013.23 1013.18 1013.14 1013.10 1013.08 1013.05 1013.00 1012.90 1012.74 1012.49 1012.17 1011.79 1011.36 1010.92 1010.47 1010.05 1009.66 1009.30
1018.13 1018.42 1018.65 1018.75 1018.66 1018.34 1017.79 1017.01 1016.05 1014.97 1013.86 1012.80 1011.89 1011.20 1010.75 1010.57 1010.63 1010.88 1011.26 1011.71 1012.15 1012.53 1012.82 1013.01 1013.11 1013.14 1013.12 1013.09 1013.06 1013.04 1013.02 1012.99 1012.93 1012.81 1012.62 1012.35 1012.01 1011.60 1011.15 1010.69 1010.23 1009.81 1009.42 1009.08
1019.03 1019.33 1019.56 1019.65 1019.55 1019.20 1018.59 1017.75 1016.72 1015.57 1014.38 1013.26 1012.28 1011.53 1011.02 1010.78 1010.78 1010.98 1011.31 1011.70 1012.10 1012.45 1012.71 1012.89 1012.98 1013.01 1013.00 1012.98 1012.95 1012.94 1012.92 1012.89 1012.82 1012.69 1012.48 1012.20 1011.83 1011.42 1010.97 1010.51 1010.06 1009.66 1009.31 1009.00
1019.73 1019.98 1020.17 1020.22 1020.06 1019.66 1018.99 1018.10 1017.01 1015.81 1014.57 1013.41 1012.40 1011.62 1011.09 1010.82 1010.80 1010.97 1011.28 1011.65 1012.02 1012.36 1012.61 1012.78 1012.87 1012.90 1012.89 1012.87 1012.84 1012.82 1012.80 1012.75 1012.67 1012.53 1012.31 1012.02 1011.66 1011.25 1010.81 1010.37 1009.97 1009.60 1009.29 1009.04
1020.15 1020.33 1020.43 1020.41 1020.18 1019.70 1018.98 1018.03 1016.91 1015.68 1014.43 1013.26 1012.25 1011.47 1010.96 1010.70 1010.69 1010.86 1011.17 1011.55 1011.93 1012.26 1012.51 1012.69 1012.78 1012.81 1012.79 1012.76 1012.73 1012.70 1012.65 1012.59 1012.49 1012.33 1012.10 1011.81 1011.46 1011.06 1010.65 1010.26 1009.89 1009.58 1009.33 1009.12
1020.29 1020.37 1020.38 1020.26 1019.95 1019.40 1018.62 1017.63 1016.48 1015.24 1014.00 1012.86 1011.89 1011.15 1010.67 1010.45 1010.48 1010.69 1011.02 1011.42 1011.81 1012.16 1012.42 1012.60 1012.69 1012.72 1012.70 1012.65 1012.60 1012.54 1012.47 1012.38 1012.26 1012.08 1011.85 1011.55 1011.21 1010.84 1010.46 1010.10 1009.79 1009.53 1009.32 1009.17
1020.18 1020.17 1020.09 1019.88 1019.48 1018.86 1018.03 1017.00 1015.84 1014.62 1013.41 1012.32 1011.40 1010.72 1010.31 1010.15 1010.22 1010.47 1010.84 1011.26 1011.67 1012.03 1012.30 1012.48 1012.57 1012.59 1012.56 1012.49 1012.42 1012.33 1012.23 1012.12 1011.97 1011.77 1011.53 1011.23 1010.90 1010.55 1010.20 1009.88 1009.60 1009.38 1009.21 1009.09
1019.94 1019.86 1019.69 1019.39 1018.92 1018.23 1017.36 1016.31 1015.16 1013.96 1012.79 1011.75 1010.90 1010.29 1009.94 1009.83 1009.95 1010.24 1010.63 1011.07 1011.49 1011.86 1012.13 1012.30 1012.39 1012.39 1012.34 1012.26 1012.16 1012.05 1011.92 1011.78 1011.61 1011.41 1011.16 1010.86 1010.54 1010.20 1009.87 1009.56 1009.31 1009.10 1008.96 1008.85
1019.65 1019.51 1019.29 1018.92 1018.38 1017.65 1016.73 1015.67 1014.52 1013.35 1012.24 1011.25 1010.47 1009.92 1009.61 1009.56 1009.70 1010.01 1010.41 1010.85 1011.27 1011.62 1011.88 1012.04 1012.11 1012.10 1012.03 1011.93 1011.82 1011.69 1011.55 1011.39 1011.21 1011.00 1010.74 1010.45 1010.13 1009.80 1009.48 1009.18 1008.93 1008.73 1008.58 1008.47
1019.37 1019.21 1018.94 1018.53 1017.94 1017.16 1016.22 1015.16 1014.02 1012.87 1011.80 1010.86 1010.13 1009.62 1009.36 1009.32 1009.48 1009.78 1010.18 1010.59 1010.98 1011.31 1011.54 1011.68 1011.73 1011.71 1011.63 1011.52 1011.39 1011.26 1011.12 1010.96 1010.79 1010.58 1010.33 1010.05 1009.74 1009.41 1009.09 1008.79 1008.53 1008.31 1008.14 1008.01
1019.15 1018.98 1018.69 1018.24 1017.61 1016.80 1015.84 1014.77 1013.64 1012.51 1011.47 1010.57 1009.86 1009.38 1009.14 1009.11 1009.26 1009.54 1009.90 1010.29 1010.64 1010.93 1011.13 1011.25 1011.28 1011.24 1011.16 1011.05 1010.92 1010.80 1010.67 1010.53 1010.37 1010.18 1009.95 1009.68 1009.38 1009.07 1008.74 1008.44 1008.16 1007.92 1007.72 1007.55
1018.96 1018.80 1018.49 1018.02 1017.36 1016.53 1015.55 1014.46 1013.33 1012.22 1011.19 1010.31 1009.62 1009.15 1008.91 1008.87 1009.00 1009.25 1009.58 1009.93 1010.24 1010.50 1010.68 1010.77 1010.79 1010.75 1010.67 1010.56 1010.45 1010.34 1010.23 1010.12 1009.98 1009.82 1009.62 1009.38 1009.10 1008.80 1008.48 1008.17 1007.87 1007.61 1007.38 1007.19
1018.77 1018.62 1018.31 1017.82 1017.14 1016.28 1015.28 1014.18 1013.04 1011.92 1010.89 1010.01 1009.33 1008.86 1008.61 1008.55 1008.66 1008.89 1009.19 1009.51 1009.80 1010.04 1010.21 1010.29 1010.31 1010.27 1010.20 1010.11 1010.02 1009.93 1009.85 1009.76 1009.65 1009.52 1009.36 1009.15 1008.90 1008.61 1008.31 1008.00 1007.70 1007.42 1007.18 1006.97
1018.54 1018.40 1018.09 1017.58 1016.88 1016.00 1014.97 1013.84 1012.68 1011.55 1010.51 1009.62 1008.92 1008.44 1008.17 1008.11 1008.20 1008.42 1008.72 1009.03 1009.33 1009.57 1009.75 1009.85 1009.89 1009.87 1009.81 1009.74 1009.66 1009.59 1009.52 1009.45 1009.37 1009.27 1009.13 1008.96 1008.75 1008.50 1008.23 1007.94 1007.65 1007.38 1007.13 1006.92
1018.24 1018.11 1017.80 1017.28 1016.56 1015.65 1014.58 1013.42 1012.23 1011.06 1009.99 1009.07 1008.36 1007.86 1007.58 1007.51 1007.61 1007.84 1008.15 1008.49 1008.82 1009.10 1009.32 1009.46 1009.53 1009.54 1009.51 1009.45 1009.39 1009.32 1009.25 1009.19 1009.12 1009.04 1008.93 1008.80 1008.63 1008.42 1008.19 1007.95 1007.70 1007.45 1007.23 1007.04
1017.89 1017.77 1017.46 1016.93 1016.18 1015.24 1014.13 1012.93 1011.68 1010.47 1009.36 1008.40 1007.65 1007.13 1006.84 1006.77 1006.88 1007.14 1007.49 1007.89 1008.28 1008.63 1008.92 1009.12 1009.24 1009.30 1009.29 1009.24 1009.17 1009.10 1009.02 1008.94 1008.87 1008.80 1008.72 1008.62 1008.50 1008.35 1008.19 1008.00 1007.81 1007.62 1007.45 1007.29
1017.52 1017.41 1017.10 1016.56 1015.79 1014.81 1013.66 1012.40 1011.10 1009.83 1008.66 1007.65 1006.85 1006.30 1005.99 1005.92 1006.05 1006.35 1006.76 1007.23 1007.71 1008.15 1008.52 1008.80 1008.98 1009.08 1009.10 1009.06 1008.99 1008.89 1008.79 1008.69 1008.61 1008.54 1008.47 1008.41 1008.35 1008.27 1008.19 1008.09 1007.98 1007.87 1007.76 1007.66
1017.17 1017.08 1016.77 1016.22 1015.43 1014.42 1013.22 1011.91 1010.54 1009.21 1007.96 1006.89 1006.04 1005.44 1005.10 1005.02 1005.18 1005.51 1005.98 1006.53 1007.09 1007.62 1008.08 1008.45 1008.70 1008.85 1008.90 1008.86 1008.78 1008.66 1008.53 1008.41 1008.31 1008.24 1008.20 1008.18 1008.18 1008.19 1008.21 1008.22 1008.21 1008.20 1008.17 1008.14
1016.87 1016.80 1016.50 1015.95 1015.15 1014.11 1012.87 1011.51 1010.08 1008.68 1007.36 1006.21 1005.29 1004.63 1004.26 1004.15 1004.30 1004.66 1005.17 1005.78 1006.42 1007.04 1007.58 1008.02 1008.34 1008.54 1008.61 1008.59 1008.49 1008.36 1008.21 1008.07 1007.97 1007.91 1007.90 1007.94 1008.02 1008.14 1008.26 1008.39 1008.51 1008.61 1008.68 1008.72
1016.64 1016.59 1016.30 1015.76 1014.95 1013.90 1012.64 1011.24 1009.77 1008.30 1006.91 1005.69 1004.69 1003.96 1003.53 1003.38 1003.50 1003.85 1004.37 1005.01 1005.70 1006.37 1006.98 1007.48 1007.86 1008.09 1008.20 1008.19 1008.10 1007.96 1007.81 1007.67 1007.58 1007.55 1007.60 1007.72 1007.90 1008.12 1008.38 1008.64 1008.88 1009.10 1009.28 1009.40
1016.45 1016.41 1016.14 1015.62 1014.82 1013.78 1012.52 1011.11 1009.61 1008.10 1006.66 1005.36 1004.29 1003.49 1002.97 1002.75 1002.81 1003.11 1003.61 1004.23 1004.93 1005.63 1006.26 1006.80 1007.22 1007.49 1007.63 1007.64 1007.58 1007.46 1007.33 1007.22 1007.17 1007.20 1007.32 1007.53 1007.82 1008.17 1008.56 1008.95 1009.33 1009.67 1009.94 1010.14
1016.22 1016.20 1015.96 1015.47 1014.71 1013.71 1012.48 1011.08 1009.59 1008.07 1006.59 1005.25 1004.11 1003.22 1002.61 1002.30 1002.27 1002.49 1002.91 1003.48 1004.14 1004.81 1005.45 1005.99 1006.42 1006.73 1006.90 1006.95 1006.93 1006.85 1006.78 1006.73 1006.75 1006.87 1007.08 1007.40 1007.81 1008.28 1008.80 1009.32 1009.82 1010.26 1010.63 1010.90
Thickness
5702 5710 5712 5712 5714 5713 5705 5700 5691 5691 5690 5688 5692 5693 5694 5693 5690 5687 5683 5680 5677 5676 5675 5673 5671 5669 5668 5666 5664 5662 5659 5655 5652 5649 5646 5643 5639 5636 5634 5631 5629 5625 5622 5618
5694 5708 5710 5709 5711 5709 5704 5700 5694 5691 5685 5690 5691 5690 5687 5684 5681 5677 5674 5673 5671 5668 5668 5667 5665 5663 5662 5660 5659 5657 5654 5651 5649 5647 5643 5640 5637 5634 5631 5628 5625 5621 5618 5614
5685 5702 5702 5692 5698 5698 5694 5694 5688 5677 5678 5685 5681 5679 5678 5676 5675 5671 5669 5667 5664 5663 5662 5662 5661 5659 5656 5655 5655 5652 5650 5648 5647 5644 5640 5637 5635 5631 5627 5624 5620 5617 5614 5610
5680 5684 5672 5688 5704 5698 5690 5686 5685 5681 5679 5679 5675 5675 5673 5672 5668 5665 5664 5662 5660 5658 5658 5658 5658 5656 5654 5653 5651 5649 5647 5646 5645 5642 5638 5635 5632 5628 5624 5621 5618 5615 5611 5607
5671 5668 5675 5688 5691 5687 5679 5674 5677 5674 5673 5673 5674 5671 5668 5667 5665 5662 5661 5658 5656 5655 5655 5655 5655 5654 5652 5651 5648 5646 5645 5644 5642 5640 5636 5632 5628 5625 5623 5619 5616 5612 5609 5606
5667 5657 5655 5669 5685 5692 5683 5665 5672 5670 5667 5667 5666 5656 5657 5661 5661 5660 5658 5655 5653 5653 5653 5652 5652 5651 5649 5647 5645 5644 5644 5642 5641 5638 5634 5630 5626 5623 5620 5617 5614 5611 5608 5605
5665 5659 5664 5675 5683 5684 5659 5650 5665 5666 5663 5661 5657 5653 5656 5658 5657 5656 5653 5651 5650 5650 5649 5649 5649 5649 5646 5645 5643 5644 5644 5642 5639 5636 5633 5630 5626 5622 5619 5616 5613 5610 5606 5604
5663 5653 5654 5674 5672 5659 5652 5661 5663 5662 5661 5658 5656 5655 5655 5655 5653 5652 5650 5649 5648 5647 5647 5647 5647 5646 5644 5643 5643 5643 5642 5640 5637 5635 5632 5630 5624 5621 5618 5614 5611 5608 5605 5602
5660 5657 5665 5669 5664 5662 5662 5659 5660 5661 5660 5657 5654 5653 5653 5652 5651 5650 5648 5647 5647 5646 5645 5646 5646 5645 5643 5643 5643 5642 5640 5637 5635 5633 5630 5627 5623 5619 5616 5613 5610 5607 5604 5601
5657 5661 5664 5666 5665 5663 5662 5659 5661 5661 5659 5657 5654 5653 5652 5650 5649 5648 5647 5646 5646 5645 5644 5644 5645 5644 5643 5644 5643 5640 5638 5635 5633 5631 5628 5625 5622 5619 5615 5613 5609 5606 5603 5599
5650 5655 5656 5658 5658 5659 5660 5660 5659 5659 5657 5656 5654 5652 5651 5649 5648 5647 5646 5646 5646 5644 5643 5644 5645 5644 5644 5644 5642 5639 5636 5634 5632 5631 5628 5624 5621 5617 5615 5611 5608 5602 5600 5597
5642 5649 5646 5648 5654 5656 5655 5654 5655 5654 5654 5654 5654 5652 5652 5650 5649 5647 5647 5647 5645 5645 5644 5645 5646 5645 5645 5644 5643 5639 5636 5634 5632 5631 5628 5625 5621 5617 5614 5610 5607 5603 5598 5593
5647 5651 5650 5651 5654 5654 5653 5653 5654 5653 5652 5651 5653 5653 5652 5650 5649 5649 5648 5648 5646 5646 5646 5646 5646 5645 5646 5645 5643 5640 5636 5634 5632 5631 5629 5625 5622 5618 5613 5609 5605 5601 5598 5592
5648 5646 5645 5648 5649 5651 5652 5652 5653 5653 5653 5652 5652 5652 5652 5650 5649 5648 5648 5649 5649 5648 5647 5647 5647 5646 5647 5646 5643 5640 5637 5636 5633 5631 5629 5626 5623 5619 5616 5611 5606 5603 5598 5592
5642 5643 5643 5646 5647 5648 5650 5650 5649 5649 5650 5650 5651 5650 5649 5647 5647 5648 5649 5650 5650 5649 5648 5648 5647 5646 5647 5646 5643 5640 5638 5637 5634 5632 5629 5626 5623 5620 5616 5612 5607 5603 5599 5594
5638 5640 5641 5641 5642 5644 5646 5647 5646 5647 5648 5648 5648 5649 5648 5648 5647 5648 5649 5650 5648 5647 5647 5647 5646 5646 5647 5645 5642 5640 5638 5634 5632 5630 5628 5625 5622 5619 5615 5611 5607 5602 5597 5593
5631 5631 5633 5636 5638 5641 5643 5645 5646 5647 5647 5646 5647 5648 5647 5647 5647 5647 5648 5649 5649 5648 5648 5646 5646 5647 5647 5646 5643 5642 5640 5637 5631 5629 5627 5624 5621 5617 5614 5610 5605 5600 5596 5591
5632 5632 5634 5635 5637 5639 5640 5643 5645 5646 5646 5647 5648 5647 5646 5645 5645 5647 5648 5649 5648 5647 5647 5647 5646 5646 5646 5646 5643 5642 5641 5638 5633 5630 5627 5624 5620 5618 5614 5609 5604 5598 5594 5591
5630 5631 5633 5635 5637 5639 5639 5641 5644 5645 5646 5647 5646 5645 5645 5646 5647 5648 5648 5647 5646 5645 5645 5646 5643 5643 5644 5644 5642 5641 5640 5637 5634 5631 5628 5623 5619 5616 5612 5607 5602 5597 5592 5588
5627 5629 5631 5634 5637 5637 5638 5640 5642 5644 5645 5645 5645 5645 5645 5646 5647 5648 5647 5647 5647 5647 5647 5645 5643 5643 5643 5643 5640 5642 5640 5637 5634 5631 5627 5623 5619 5614 5610 5605 5600 5595 5590 5586
5623 5625 5628 5631 5633 5635 5637 5639 5640 5642 5644 5645 5645 5644 5645 5646 5648 5648 5647 5646 5647 5648 5646 5643 5643 5643 5643 5642 5640 5641 5640 5637 5634 5630 5626 5622 5618 5614 5609 5604 5599 5594 5588 5583
5619 5622 5625 5628 5629 5631 5634 5637 5639 5642 5643 5645 5646 5646 5646 5646 5648 5648 5648 5648 5648 5646 5646 5645 5644 5643 5642 5640 5642 5641 5639 5637 5633 5630 5626 5622 5617 5613 5608 5603 5597 5592 5586 5581
5616 5619 5622 5624 5626 5629 5633 5636 5639 5642 5643 5645 5646 5647 5647 5648 5649 5648 5647 5649 5650 5646 5645 5645 5643 5641 5638 5640 5642 5641 5639 5635 5633 5629 5625 5622 5617 5612 5606 5601 5596 5590 5585 5579
5612 5616 5619 5622 5625 5626 5629 5634 5638 5641 5644 5646 5649 5649 5649 5649 5650 5653 5652 5650 5648 5646 5646 5644 5641 5640 5638 5642 5642 5641 5638 5635 5632 5629 5625 5621 5617 5611 5606 5600 5594 5589 5583 5578
5610 5613 5616 5618 5620 5623 5627 5632 5636 5639 5643 5647 5650 5651 5652 5653 5652 5654 5654 5652 5647 5645 5646 5643 5641 5640 5641 5643 5642 5641 5638 5635 5632 5628 5624 5619 5615 5610 5604 5599 5593 5587 5581 5575
5607 5609 5613 5615 5618 5621 5626 5630 5634 5638 5642 5645 5649 5652 5653 5654 5655 5655 5654 5652 5650 5647 5648 5647 5645 5642 5643 5643 5642 5641 5638 5635 5631 5627 5623 5618 5614 5608 5602 5597 5591 5585 5579 5572
5604 5608 5610 5614 5618 5622 5627 5630 5634 5638 5642 5644 5648 5651 5653 5654 5654 5655 5654 5653 5652 5650 5651 5651 5650 5648 5646 5645 5643 5641 5638 5635 5630 5626 5622 5617 5612 5606 5601 5595 5589 5583 5577 5571